• In Russia
  • List of Countries
  • For 7 days
  • Water Temperature
  • Satellite Maps
  • Weather Map
  • Weather Widgets
  • user-avatar
    Login

    Hourly Weather Columbia

    Today, 20 January, Saturday

    Time Temperature Precipitation Wind Pressure Humidity
    00:00 +3°C° 0 mm 2 mps 759 mmHg 58%
    01:00 +2°C° 0 mm 3 mps 759 mmHg 57%
    02:00 +2°C° 0 mm 3 mps 759 mmHg 55%
    03:00 +1°C° 0 mm 3 mps 759 mmHg 53%
    04:00 +1°C° 0 mm 3 mps 759 mmHg 52%
    05:00 +1°C° 0 mm 3 mps 759 mmHg 52%
    06:00 +1°C° 0 mm 3 mps 759 mmHg 52%
    07:00 +1°C° 0 mm 3 mps 760 mmHg 52%
    08:00 +3°C° 0 mm 3 mps 760 mmHg 51%
    09:00 +5°C° 0 mm 3 mps 760 mmHg 50%
    10:00 +7°C° 0 mm 3 mps 760 mmHg 49%
    11:00 +9°C° 0 mm 3 mps 760 mmHg 48%
    12:00 +11°C° 0 mm 3 mps 760 mmHg 47%
    13:00 +13°C° 0 mm 3 mps 759 mmHg 45%
    14:00 +15°C° 0 mm 2 mps 759 mmHg 46%
    15:00 +15°C° 0 mm 2 mps 759 mmHg 47%
    16:00 +16°C° 0 mm 2 mps 759 mmHg 47%
    17:00 +14°C° 0 mm 1 mps 759 mmHg 54%
    18:00 +12°C° 0 mm 1 mps 759 mmHg 61%
    19:00 +10°C° 0 mm 1 mps 760 mmHg 68%
    20:00 +10°C° 0 mm 1 mps 760 mmHg 70%
    21:00 +9°C° 0 mm 1 mps 760 mmHg 72%
    22:00 +9°C° 0 mm 1 mps 761 mmHg 75%
    23:00 +9°C° 0 mm 1 mps 761 mmHg 78%

    Tomorrow, 21 January, Sunday

    Time Temperature Precipitation Wind Pressure Humidity
    00:00 +8°C° 0 mm 1 mps 761 mmHg 81%
    01:00 +8°C° 0 mm 1 mps 761 mmHg 85%
    02:00 +8°C° 0 mm 1 mps 760 mmHg 86%
    03:00 +7°C° 0 mm 1 mps 760 mmHg 88%
    04:00 +7°C° 0 mm 1 mps 760 mmHg 90%
    05:00 +7°C° 0 mm 1 mps 760 mmHg 90%
    06:00 +6°C° 0 mm 0 mps 760 mmHg 91%
    07:00 +5°C° 0 mm 0 mps 761 mmHg 91%
    08:00 +7°C° 0 mm 0 mps 761 mmHg 85%
    09:00 +9°C° 0 mm 0 mps 761 mmHg 78%
    10:00 +11°C° 0 mm 0 mps 762 mmHg 71%
    11:00 +13°C° 0 mm 0 mps 761 mmHg 65%
    12:00 +16°C° 0 mm 1 mps 761 mmHg 60%
    13:00 +19°C° 0 mm 1 mps 761 mmHg 54%
    14:00 +19°C° 0 mm 1 mps 760 mmHg 54%
    15:00 +19°C° 0 mm 1 mps 760 mmHg 53%
    16:00 +19°C° 0 mm 1 mps 759 mmHg 53%
    17:00 +16°C° 0 mm 1 mps 760 mmHg 60%
    18:00 +15°C° 0 mm 1 mps 760 mmHg 67%
    19:00 +13°C° 0 mm 1 mps 760 mmHg 74%
    20:00 +12°C° 0 mm 1 mps 760 mmHg 76%
    21:00 +12°C° 0 mm 1 mps 760 mmHg 78%
    22:00 +11°C° 0 mm 1 mps 761 mmHg 81%
    23:00 +11°C° 0 mm 1 mps 760 mmHg 83%

    Day after tomorrow, 22 January, Monday

    Time Temperature Precipitation Wind Pressure Humidity
    00:00 +10°C° 0 mm 1 mps 760 mmHg 85%
    01:00 +10°C° 0 mm 1 mps 760 mmHg 87%
    02:00 +10°C° 0 mm 1 mps 760 mmHg 87%
    03:00 +9°C° 0 mm 1 mps 760 mmHg 88%
    04:00 +9°C° 0 mm 1 mps 759 mmHg 88%
    05:00 +9°C° 0 mm 1 mps 759 mmHg 87%
    06:00 +9°C° 0 mm 1 mps 760 mmHg 87%
    07:00 +9°C° 0 mm 1 mps 760 mmHg 86%
    08:00 +10°C° 0 mm 1 mps 760 mmHg 80%
    09:00 +10°C° 0 mm 2 mps 760 mmHg 74%
    10:00 +13°C° 0 mm 2 mps 760 mmHg 67%
    11:00 +13°C° 0 mm 3 mps 759 mmHg 66%
    12:00 +16°C° 0 mm 3 mps 758 mmHg 64%
    13:00 +18°C° 0 mm 4 mps 757 mmHg 63%
    14:00 +18°C° 0 mm 4 mps 757 mmHg 68%
    15:00 +17°C° 0 mm 3 mps 756 mmHg 74%
    16:00 +17°C° 0 mm 3 mps 756 mmHg 79%
    17:00 +17°C° 0 mm 3 mps 755 mmHg 82%
    18:00 +16°C° 0 mm 3 mps 755 mmHg 86%
    19:00 +15°C° 0 mm 4 mps 755 mmHg 90%
    20:00 +15°C° 0 mm 4 mps 755 mmHg 91%
    21:00 +15°C° 0 mm 5 mps 754 mmHg 93%
    22:00 +15°C° 0 mm 6 mps 753 mmHg 95%
    23:00 +15°C° 0 mm 6 mps 753 mmHg 93%

    23 January, Tuesday

    Time Temperature Precipitation Wind Pressure Humidity
    00:00 +16°C° 0 mm 7 mps 752 mmHg 91%
    01:00 +16°C° 0 mm 7 mps 752 mmHg 90%
    02:00 +16°C° 0.4 mm 7 mps 752 mmHg 89%
    03:00 +16°C° 0.4 mm 7 mps 752 mmHg 88%
    04:00 +15°C° 0.4 mm 6 mps 752 mmHg 87%
    05:00 +14°C° 0.1 mm 6 mps 752 mmHg 81%
    06:00 +12°C° 0.1 mm 5 mps 753 mmHg 76%
    07:00 +9°C° 0.1 mm 5 mps 753 mmHg 70%
    08:00 +9°C° 0 mm 5 mps 754 mmHg 66%
    09:00 +9°C° 0 mm 5 mps 754 mmHg 62%
    10:00 +9°C° 0 mm 6 mps 755 mmHg 58%
    11:00 +11°C° 0 mm 6 mps 754 mmHg 53%
    12:00 +13°C° 0 mm 6 mps 754 mmHg 48%
    13:00 +14°C° 0 mm 6 mps 754 mmHg 43%
    14:00 +14°C° 0 mm 6 mps 754 mmHg 43%
    15:00 +14°C° 0 mm 6 mps 754 mmHg 42%
    16:00 +14°C° 0 mm 6 mps 754 mmHg 42%
    17:00 +13°C° 0 mm 5 mps 755 mmHg 46%
    18:00 +10°C° 0 mm 5 mps 755 mmHg 50%
    19:00 +10°C° 0 mm 4 mps 756 mmHg 54%
    20:00 +8°C° 0 mm 4 mps 757 mmHg 56%
    21:00 +7°C° 0 mm 4 mps 757 mmHg 57%
    22:00 +8°C° 0 mm 3 mps 758 mmHg 59%
    23:00 +7°C° 0 mm 3 mps 758 mmHg 61%

    24 January, Wednesday

    Time Temperature Precipitation Wind Pressure Humidity
    00:00 +5°C° 0 mm 3 mps 758 mmHg 64%
    01:00 +5°C° 0 mm 2 mps 758 mmHg 67%
    02:00 +5°C° 0 mm 2 mps 759 mmHg 69%
    03:00 +4°C° 0 mm 2 mps 759 mmHg 71%
    04:00 +5°C° 0 mm 1 mps 759 mmHg 72%
    05:00 +5°C° 0 mm 1 mps 760 mmHg 73%
    06:00 +4°C° 0 mm 1 mps 760 mmHg 73%
    07:00 +4°C° 0 mm 1 mps 761 mmHg 73%
    08:00 +6°C° 0 mm 1 mps 761 mmHg 65%
    09:00 +6°C° 0 mm 2 mps 762 mmHg 57%
    10:00 +8°C° 0 mm 2 mps 762 mmHg 49%
    11:00 +10°C° 0 mm 2 mps 762 mmHg 43%
    12:00 +12°C° 0 mm 2 mps 762 mmHg 38%
    13:00 +14°C° 0 mm 2 mps 761 mmHg 32%
    14:00 +14°C° 0 mm 1 mps 761 mmHg 32%
    15:00 +14°C° 0 mm 1 mps 761 mmHg 32%
    16:00 +14°C° 0 mm 1 mps 760 mmHg 33%
    17:00 +13°C° 0 mm 1 mps 761 mmHg 38%
    18:00 +11°C° 0 mm 1 mps 761 mmHg 43%
    19:00 +9°C° 0 mm 1 mps 762 mmHg 48%
    20:00 +9°C° 0 mm 1 mps 762 mmHg 49%
    21:00 +8°C° 0 mm 1 mps 763 mmHg 51%
    22:00 +8°C° 0 mm 1 mps 763 mmHg 53%
    23:00 +7°C° 0 mm 1 mps 763 mmHg 54%

    25 January, Thursday

    Time Temperature Precipitation Wind Pressure Humidity
    00:00 +7°C° 0 mm 1 mps 763 mmHg 55%
    01:00 +6°C° 0 mm 1 mps 764 mmHg 57%
    02:00 +5°C° 0 mm 2 mps 764 mmHg 58%
    03:00 +4°C° 0 mm 2 mps 764 mmHg 59%
    04:00 +3°C° 0 mm 2 mps 764 mmHg 60%
    05:00 +3°C° 0 mm 2 mps 765 mmHg 61%
    06:00 +3°C° 0 mm 2 mps 766 mmHg 62%
    07:00 +2°C° 0 mm 2 mps 766 mmHg 64%
    08:00 +4°C° 0 mm 2 mps 767 mmHg 59%
    09:00 +5°C° 0 mm 2 mps 767 mmHg 53%
    10:00 +6°C° 0 mm 2 mps 768 mmHg 48%
    11:00 +8°C° 0 mm 2 mps 768 mmHg 44%
    12:00 +10°C° 0 mm 2 mps 767 mmHg 39%
    13:00 +12°C° 0 mm 2 mps 767 mmHg 34%
    14:00 +12°C° 0 mm 2 mps 767 mmHg 33%
    15:00 +13°C° 0 mm 2 mps 767 mmHg 32%
    16:00 +13°C° 0 mm 2 mps 766 mmHg 31%
    17:00 +11°C° 0 mm 1 mps 767 mmHg 36%
    18:00 +9°C° 0 mm 1 mps 767 mmHg 41%
    19:00 +8°C° 0 mm 1 mps 768 mmHg 45%
    20:00 +7°C° 0 mm 1 mps 768 mmHg 48%
    21:00 +5°C° 0 mm 2 mps 768 mmHg 51%
    22:00 +5°C° 0 mm 2 mps 769 mmHg 54%
    23:00 +4°C° 0 mm 2 mps 769 mmHg 56%
    Show more